BEIDOU 19 (C58)

Last updated on Mon Feb 13 2023 00:03:21 GMT+0000 (Coordinated Universal Time)

1 40749U 15037B 23043.25890519 -.00000076 00000+0 00000+0 0 9993 2 40749 55.7742 343.6507 0007013 322.1371 194.8294 1.86232937 51378

Satellite not in orbit

BEIDOU 19 (C58)